Location: Barrialito
(10.3588°N, 66.9747°W)
Time: 14:34:11
(UTC+00:00)

Cosmos 1862 Rocket - Visible Passes

Search period start: 03 July 2022 00:00
Search period end: 13 July 2022 00:00
Orbit: 602 x 634 km, 82.5° (Epoch: 03 July)

Date Brightness Start Highest point End Pass type
(mag) Time Alt. Az. Time Alt. Az. Time Alt. Az.
03 Jul 5.7 08:35:59 10° NNE 08:39:36 26° E 08:43:13 10° SE visible
04 Jul 4.0 08:52:25 10° N 08:56:41 61° E 09:00:57 10° SSE visible
05 Jul 3.6 09:09:30 10° NNW 09:13:43 56° W 09:17:59 10° S visible
06 Jul 6.5 07:51:20 10° ENE 07:53:08 12° E 07:54:56 10° ESE visible
06 Jul 4.6 09:27:14 10° NW 09:30:45 24° W 09:34:17 10° SSW visible
07 Jul 5.5 08:06:34 10° NNE 08:10:14 27° E 08:13:55 10° SE visible
07 Jul 5.5 09:46:36 10° WNW 09:47:45 11° W 09:48:54 10° WSW visible
08 Jul 3.9 08:23:02 10° N 08:27:19 64° E 08:29:13 32° SSE visible
09 Jul 3.6 08:40:09 10° NNW 08:44:22 54° W 08:44:45 52° WSW visible
10 Jul 6.5 07:21:46 10° NE 07:23:27 13° ENE 07:23:27 13° ENE visible
10 Jul 4.9 08:57:55 10° NW 09:00:29 22° WNW 09:00:29 22° WNW visible
11 Jul 5.8 07:37:08 10° NNE 07:39:19 23° NE 07:39:19 23° NE visible
12 Jul 5.5 07:53:39 10° N 07:55:19 23° N 07:55:19 23° N visible
